Location: Codford Saint Peter
(51.1597°N, 2.0531°W)
Time: 00:53:39
(UTC+00:00)

ELECTRON R/B - Pass Details

Date: 06 December 2021
Orbit: 484 x 495 km, 40.0° (Epoch: 23 January)

Event Time Altitude Azimuth Distance (km) Brightness Sun altitude
Exits shadow 06:01:04 - 215° (SW) 1,797 ? -17.1°
Reaches altitude 10° 06:01:36 10° 209° (SSW) 1,662 ? -17.0°
Maximum altitude 06:03:47 15° 173° (S) 1,392 ? -16.7°
Drops below altitude 10° 06:05:58 10° 138° (SE) 1,667 ? -16.3°
Sets 06:08:55 0° 114° (ESE) 2,552 ? -15.9°
